Location: Cargill Incorporated Elevator
(42.7294°N, 93.7333°W)
Time: 05:45:16
(UTC+00:00)

MOS 1 Rocket - Pass Details

Date: 19 January 2026
Orbit: 608 x 815 km, 97.4° (Epoch: 15 February)

Event Time Altitude Azimuth Distance (km) Brightness Sun altitude
Rises 12:51:33 0° 10° (N) 2,986 6.5 -9.1°
Reaches altitude 10° 12:53:49 10° 8° (N) 2,044 5.6 -8.7°
Maximum altitude 12:58:14 73° 285° (WNW) 656 3.0 -7.9°
Drops below altitude 10° 13:02:28 10° 201° (SSW) 1,962 5.7 -7.2°
Sets 13:04:36 0° 199° (SSW) 2,854 6.5 -6.8°
